Location: Dannhausen
(51.8650°N, 10.1026°E)
Time: 18:10:48
(UTC+00:00)

Cosmos 2360 - Pass Details

Date: 09 April 2020
Orbit: 847 x 855 km, 70.8° (Epoch: 24 May)

Event Time Altitude Azimuth Distance (km) Brightness Sun altitude
Rises 20:18:53 0° 329° (NNW) 3,423 8.7 -18.6°
Reaches altitude 10° 20:21:25 10° 334° (NNW) 2,485 7.7 -18.9°
Maximum altitude 20:27:01 56° 53° (NE) 1,012 4.5 -19.5°
Enters shadow 20:29:12 35° 112° (ESE) 1,345 4.8 -19.8°
